Back to catalog

ONEWEB-0367

AliveCommunicationsPO
NORAD 49293·PAYLOAD·🇬🇧 United Kingdom

Launched Oct 14, 2021 from Vostochny Cosmodrome

Loading…

Next Passes (next 24 hours)

TLE

FreshSource: CelesTrak SupGP

Epoch: Sep 14, 2026, 10:06 UTC

1 49293C 21090Q   26257.42131944  .00002465  00000+0  60705-2 0  2572
2 49293  87.9135 256.6414 0001958  86.0215 353.3143 13.20768804    17

Track ONEWEB-0367 in real time with AllMySat

Download on the App Store